User: anonymous   Login
Location: Unspecified
(0.0000°N, 0.0000°E)
Time: 06:23:57
(UTC+00:00)
Language:

N. Korean satellite - Orbit

View from above orbital plane
View from above orbital plane
View from above satellite
View from above satellite

Ground track
Ground track

The orbit data is extracted from the following two-line orbital elements,

1 39026U 12072A   15024.87805303  .00004326  00000-0  21153-3 0  2395
2 39026 097.3014 061.3963 0049318 018.8878 341.4171 15.17659527116950
Epoch (UTC): 24 January 2015 21:04:23
Eccentricity: 0.0049318
inclination: 97.3014°
perigee height: 479 km
apogee height: 547 km
right ascension of ascending node: 61.3963°
argument of perigee: 18.8878°
revolutions per day: 15.17659527
mean anomaly at epoch: 341.4171°
orbit number at epoch: 11695

The dashed part of the orbit path shows where the satellite is in the earth's shadow,  

DLR